#timestamp,LO_Frequency,Hit,StdDev 
1651276815.5,286047004.4,Y
1651276835.4,286047002.0,P
1651276855.2,286046999.8,N
1651276875.0,286047001.0,N
1651276875.9,286047001.0,N
1651276895.8,286047002.4,Y
1651276915.6,286047002.7,P
1651276935.5,286046998.1,N
1651276955.3,286046998.1,N
1651276975.1,286046998.4,N
1651276995.9,286047001.6,N
1651277015.7,286047002.3,N
1651277035.5,286046998.1,N
1651277055.4,286046999.6,N
1651277075.2,286046999.6,N
1651277095.1,286047001.0,N
1651277096.0,286047001.0,N
1651277115.8,286047001.2,N
1651277135.6,286046998.1,N
1651277155.5,286046998.4,N
1651277175.3,286046999.0,N
1651277195.1,286046999.0,N
1651277215.9,286046998.4,N
1651277235.7,286047000.8,N
1651277255.6,286046999.8,N
1651277275.4,286047001.2,N
1651277295.2,286047000.4,N
1651277315.1,286047002.0,N
1651277316.0,286047002.0,N
1651277335.8,286047000.9,N
1651277355.7,286046998.5,N
1651277375.5,286047000.5,N
1651277395.3,286047000.9,N
1651277415.2,286046999.7,N
1651277435.9,286046999.9,N
1651277455.7,286047002.3,N
1651277475.6,286047000.3,N
1651277495.4,286047000.3,N
1651277515.2,286047000.1,N
1651277535.1,286047002.3,N
1651277536.0,286047002.3,N
1651277555.8,286047001.8,N
1651277575.7,286047002.0,N
1651277595.5,286047004.3,Y
1651277615.3,286047000.3,P
1651277635.2,286046999.9,N
1651277655.0,286047000.9,P
1651277655.9,286047000.9,N
1651277675.8,286046998.2,Y
1651277695.6,286047000.8,P
1651277715.4,286047002.5,P
1651277735.3,286047001.3,N
1651277755.1,286047001.9,N
1651277775.9,286047004.3,Y
1651277795.7,286046998.2,P
1651277815.5,286046999.5,N
1651277835.4,286046997.0,N
1651277855.2,286046996.4,N
1651277875.0,286046996.1,N
1651277875.9,286046996.1,N
1651277895.8,286046996.0,N
1651277915.6,286046995.3,N
1651277935.5,286046995.0,N
1651277955.3,286046999.6,N
1651277975.1,286046998.8,N
1651277995.9,286046996.5,N
1651278015.7,286046995.0,N
1651278035.5,286046997.2,N
1651278055.4,286046996.6,N
1651278075.2,286047001.2,N
1651278095.0,286046998.8,N
1651278096.0,286046998.8,N
1651278115.8,286047000.4,N
1651278135.6,286047001.1,N
1651278155.5,286047000.4,N
1651278175.3,286046998.2,N
1651278195.1,286046999.0,N
1651278215.9,286046998.9,N
1651278235.7,286046999.1,N
1651278255.5,286046998.8,N
1651278275.4,286046996.6,N
1651278295.2,286046997.2,N
1651278315.1,286046997.0,N
1651278316.0,286046997.0,N
1651278335.8,286046996.5,N
1651278355.6,286046999.3,N
1651278375.5,286046998.3,N
1651278395.3,286046998.9,N
1651278415.1,286047001.2,N
1651278435.9,286046996.5,N
1651278455.7,286046998.8,N
1651278475.6,286046998.4,N
1651278495.4,286046998.5,N
1651278515.2,286046999.3,N
1651278535.1,286046999.3,N
1651278536.0,286046999.3,N
1651278555.8,286046999.3,N
1651278575.7,286047001.1,N
1651278595.5,286046998.9,N
1651278615.3,286046997.2,N
1651278635.2,286046999.6,N
1651278655.9,286046996.9,N
1651278675.7,286046997.4,N
1651278695.6,286046999.6,N
1651278715.4,286046996.5,N
1651278735.2,286047000.7,N
1651278755.1,286046998.3,N
1651278756.0,286046998.3,N
1651278775.8,286046998.5,N
1651278795.7,286047000.9,N
1651278815.5,286046998.5,N
1651278835.3,286046999.5,N
1651278855.2,286046999.5,N
1651278875.0,286046999.1,N
1651278875.9,286046999.1,N
1651278895.8,286047000.7,N
1651278915.6,286046999.3,N
1651278935.4,286046999.1,N
1651278955.3,286046998.4,N
1651278975.1,286046999.4,N
1651278995.8,286046999.4,N
1651279015.7,286046998.7,N
1651279035.5,286046998.5,N
1651279055.4,286046999.1,N
1651279075.2,286046999.5,N
1651279095.0,286046997.4,N
1651279095.9,286046997.4,N
1651279115.8,286046998.9,N
1651279135.6,286046998.9,N
1651279155.4,286046998.1,N
1651279175.3,286046996.6,Y
1651279195.1,286046997.9,P
1651279215.9,286046997.4,P
1651279235.7,286046997.2,P
1651279255.5,286046997.9,Y
1651279275.4,286046998.9,P
1651279295.2,286046999.3,N
1651279315.0,286047000.8,N
1651279315.9,286047000.8,N
1651279335.8,286047000.2,N
1651279355.6,286047000.6,N
1651279375.5,286046998.2,N
1651279395.3,286046998.1,N
1651279415.1,286047002.6,N
1651279435.9,286047001.7,N
1651279455.7,286047002.4,N
1651279475.5,286047001.5,N
1651279495.4,286047002.3,N
1651279515.2,286047002.0,N
1651279535.1,286047001.3,N
1651279536.0,286047001.3,N
1651279555.8,286047004.2,N
1651279575.6,286047002.9,N
1651279595.5,286047004.2,N
1651279615.3,286047001.4,N
1651279635.1,286047003.0,N
1651279655.9,286047004.2,N
1651279675.7,286047003.4,N
1651279695.6,286047003.2,N
1651279715.4,286047002.0,N
1651279735.2,286047001.7,N
1651279755.1,286047002.6,N
1651279756.0,286047002.6,N
1651279775.8,286047001.4,N
1651279795.7,286047004.1,N
1651279815.5,286047004.4,N
1651279835.3,286047003.8,N
1651279855.2,286047003.1,N
1651279875.0,286047004.0,N
1651279875.9,286047004.0,N
1651279895.7,286047001.4,N
1651279915.6,286047004.4,N
1651279935.4,286047003.7,N
1651279955.3,286047002.1,N
1651279975.1,286047004.0,Y
1651279976.0,286047004.0,P
1651279995.8,286046998.3,N
1651280015.7,286046999.4,N
1651280035.5,286046998.3,N
1651280055.3,286046998.5,N
1651280075.2,286047000.9,N
1651280095.0,286047001.5,N
1651280095.9,286047001.5,N
1651280115.8,286047001.7,N
1651280135.6,286047001.8,N
1651280155.4,286047002.0,N
1651280175.3,286047001.4,N
1651280195.1,286047002.5,N
1651280215.8,286047001.8,N
1651280235.7,286047001.3,N
1651280255.5,286047002.3,N
1651280275.4,286047000.2,N
1651280295.2,286047000.2,N
1651280315.0,286047002.2,N
1651280315.9,286047002.2,N
1651280335.8,286046999.7,N
1651280355.6,286047000.9,N
1651280375.4,286047002.1,N
1651280395.3,286047001.8,N
